Regional Weather Roundup
Issued by NWS

Home | Current Version | Previous Version | Graphics & Text | Print | Product List | Glossary On
Versions: 1 2 3 4 5 6 7 8 9 10 11 12 13 14 15 16 17 18 19 20 21 22 23 24 25 26 27 28 29 30 31 32 33 34 35 36 37 38 39 40 41 42 43 44 45 46 47 48 49 50
000
ASUS43 KDMX 301107
RWRIA

WEATHER ROUNDUP FOR IOWA
NATIONAL WEATHER SERVICE DES MOINES IA
600 AM CDT MON MAR 30 2015

NOTE: "FAIR" INDICATES FEW OR NO CLOUDS BELOW 12,000 FEET WITH NO
SIGNIFICANT WEATHER AND/OR OBSTRUCTIONS TO VISIBILITY.

* - THESE STATIONS ARE NOT NWS STATIONS...THUS NOT UNDER NWS
QUALITY CONTROL.  THEY ALSO DO NOT REPORT WEATHER SUCH
AS PRECIPITATION OR FOG.

IAZ001>003-012>014-020>022-031>034-043>046-301200-
   NORTHWEST IOWA

CITY           SKY/WX    TMP DP  RH WIND       PRES   REMARKS
CARROLL *      CLEAR     34  23  64 W7        30.08S WCI  28
CHEROKEE *     PTCLDY    32  27  80 S5        30.05F WCI  27
DENISON *      CLEAR     32  25  74 CALM      30.07S
LE MARS *      CLEAR     34  23  64 CALM      30.05S
ORANGE CITY *  CLEAR     36  23  60 S5        30.04S WCI  32
SHELDON *      PTCLDY    32  23  69 CALM      30.03S
SIOUX CITY     PTCLDY    31  22  69 E8        30.06S WCI  23
SPENCER        MOCLDY    34  24  67 SW3       30.04S
STORM LAKE *   CLEAR     36  23  60 SW7       30.07R WCI  30
$$

IAZ055>058-069>071-079>083-090>094-301200-
   SOUTHWEST IOWA

CITY           SKY/WX    TMP DP  RH WIND       PRES   REMARKS
ATLANTIC *     CLEAR     27  25  93 S3        30.12S
AUDUBON *      CLEAR     28  23  80 CALM      30.10S
CLARINDA *     CLEAR     30  28  93 CALM      30.15S
COUNCIL BLFS * CLEAR     41  25  52 SW8       30.10F
CRESTON *      CLEAR     34  25  69 SW7       30.12R WCI  28
HARLAN  *      CLEAR     28  28 100 CALM      30.13F
LAMONI         CLEAR     36  26  67 SW6       30.11F WCI  31
RED OAK *      PTCLDY    28  27  93 CALM      30.13S
SHENANDOAH *   CLEAR     32  27  80 CALM      30.14F
$$

IAZ047>049-059>061-072>074-084-301200-
   CENTRAL IOWA

CITY           SKY/WX    TMP DP  RH WIND       PRES   REMARKS
AMES           PTCLDY    33  23  66 SW8       30.08S WCI  26
ANKENY *       CLEAR     32  25  74 S3        30.09F
CHARITON *     CLEAR     37  25  60 SW7       30.11F WCI  32
DES MOINES     PTCLDY    37  24  59 SW3       30.10F
GRINNELL*      CLEAR     32  25  74 SW8       30.09F WCI  25
KNOXVILLE *    CLEAR     36  25  64 SW7       30.09F WCI  30
MARSHALLTOWN   CLEAR     31  24  75 W8        30.06S WCI  23
PELLA *        CLEAR     37  30  75 SW7       30.11F WCI  32
PERRY *          N/A     34  27  75 SW7       30.08S WCI  28
$$

IAZ004>006-015-016-023>025-035-036-301200-
   NORTH CENTRAL IOWA

CITY           SKY/WX    TMP DP  RH WIND       PRES   REMARKS
ALGONA *       CLEAR     36  27  69 SW13      30.04R WCI  27
CLARION *      CLEAR     30  27  86 S8        30.05S WCI  23
ESTHERVILLE    CLEAR     36  24  62 SW13      30.01S WCI  27
FORT DODGE *   MOCLDY    37  25  60 SW8       30.07R WCI  31
MASON CITY     CLEAR     37  26  64 W12       30.03S WCI  29
FOREST CITY *  CLEAR     32  27  80 SW7       30.03R WCI  26
IOWA FALLS *     N/A     34  27  75 SW10      30.06S WCI  26
$$

IAZ007>011-017>019-026>030-037>042-050>054-066-301200-
   NORTHEAST IOWA

CITY           SKY/WX    TMP DP  RH WIND       PRES   REMARKS
CEDAR RAPIDS   CLEAR     30  25  81 CALM      30.06R
CHARLES CITY * CLEAR     36  27  69 W10       30.02R WCI  28
CLINTON *      CLEAR     30  25  80 W6        30.08R WCI  24
DECORAH *      CLEAR     36  28  75 W6        29.99S WCI  31
DUBUQUE        CLEAR     33  27  78 S5        30.02R WCI  29
MONTICELLO *   CLEAR     30  30 100 CALM      30.05R
OELWEIN *      CLEAR     30  27  86 SW8       30.03S WCI  23
WATERLOO       CLEAR     33  26  75 SW9       30.03S WCI  25
$$

IAZ064-065-067-068-078-301200-
   EAST CENTRAL IOWA

CITY           SKY/WX    TMP DP  RH WIND       PRES   REMARKS
DAVENPORT      CLEAR     30  25  81 W7        30.07R WCI  23
IOWA CITY      CLEAR     30  24  78 SW3       30.10R
MT. PLEASANT * CLEAR     32  25  74 W8        30.12R WCI  25
MUSCATINE *    CLEAR     37  27  65 VRB6G12   30.10R WCI  33
QUAD CITIES    CLEAR     29  25  85 SW8       30.07R WCI  21
$$

IAZ062-063-075>077-085>089-095>099-301200-
   SOUTHEAST IOWA

CITY           SKY/WX    TMP DP  RH WIND       PRES   REMARKS
BURLINGTON     CLEAR     38  27  64 W7        30.10R WCI  33
FAIRFIELD *    CLEAR     36  25  64 SW9       30.12R WCI  29
FORT MADISON * CLEAR     39  27  60 W3        30.13R
KEOKUK *       CLEAR     36  27  69 SW6       30.12R WCI  31
OSKALOOSA *      N/A     32  23  69 SW6       30.11S WCI  26
CENTERVILLE *  CLEAR     34  27  75 SW8       30.14S WCI  27
OTTUMWA        CLEAR     32  23  69 W7        30.11R WCI  26
WASHINGTON *   CLEAR     36  27  69 W8        30.10R WCI  29
$$

ABBREVIATIONS USED IN REMARKS
   TC - TEMPERATURES IN CELSIUS
  WCI - WIND CHILL INDEX
   HX - HEAT INDEX
  VSB - VISIBILITY
$$




USA.gov is the U.S. government's official web portal to all federal, state and local government web resources and services.